Wind_Speed
54 53 51 52 54 52 49 48 48 46 44 44 44 42 40 39 39 40 40 40 41 42 42 41 40 38 35 30 27 27 28 30 29 27 27 26 24 24 23 22 22 21 21 21 19 19 19 19 20 21 22 22 22 22 22 23 25 26 27 28 28 29 30 32 35 35 33 35 38 36 36 40 44 45 45 44 43 41 41 41 42 43 44 44 44
57 55 53 53 53 51 48 48 48 46 45 45 45 44 42 40 40 41 41 42 43 43 43 43 42 40 37 31 28 28 29 30 30 28 27 27 25 24 24 23 23 22 22 21 20 20 20 20 20 21 22 22 22 22 23 23 25 26 27 27 28 29 31 33 35 35 32 35 37 35 37 42 44 44 46 44 42 41 41 42 43 43 44 45 45
59 57 55 54 53 50 47 48 49 48 47 46 46 45 43 42 41 42 43 43 44 45 44 44 43 41 38 32 28 28 29 30 31 29 28 27 26 25 25 25 24 23 22 21 21 20 21 20 20 21 22 22 22 23 23 24 25 26 27 27 28 30 31 33 35 34 32 33 36 37 39 43 44 44 45 43 41 41 41 42 43 43 43 45 46
60 59 57 56 55 51 48 50 51 49 48 47 47 46 45 44 43 43 43 44 45 46 46 45 44 42 39 33 29 29 30 30 31 30 28 28 27 26 26 26 25 23 22 22 21 21 22 21 21 21 22 22 22 23 23 25 25 26 27 28 29 30 32 33 33 33 32 34 37 39 41 43 44 44 43 41 40 41 42 42 43 42 43 45 46
61 60 59 58 56 54 51 53 54 51 50 48 47 47 46 45 44 43 44 45 46 47 47 46 45 42 39 35 31 31 31 31 32 30 28 28 28 27 27 27 26 24 23 22 22 22 23 22 22 22 22 22 23 23 24 25 26 26 27 28 29 31 32 32 31 31 33 36 38 41 42 43 44 43 41 40 39 40 41 42 42 43 44 45 46
62 60 60 59 58 56 54 55 56 53 50 49 48 47 47 47 45 44 45 46 46 48 48 47 45 42 39 36 33 32 32 32 32 30 28 29 29 28 28 28 27 25 23 23 23 24 24 23 23 23 23 23 23 24 24 26 26 26 27 28 29 31 32 31 30 32 34 37 40 42 42 42 42 41 40 40 39 40 41 42 42 43 44 45 46
63 61 61 61 60 58 54 55 57 53 50 49 48 48 48 48 46 45 46 47 47 48 49 48 46 43 40 37 34 33 33 32 32 31 29 29 30 29 29 29 28 25 24 24 24 25 25 24 24 24 24 24 24 24 25 26 27 26 27 28 29 30 31 30 31 33 36 39 41 42 42 42 41 39 39 39 40 40 41 42 43 43 44 45 45
65 62 61 61 62 59 55 57 58 54 51 51 50 50 50 48 47 46 47 47 48 49 50 49 46 43 40 37 35 34 33 31 31 31 30 30 30 30 30 30 28 26 25 25 25 26 26 25 25 24 25 25 25 25 26 26 27 27 28 29 29 30 30 30 32 35 37 40 41 41 41 40 39 38 38 39 40 40 41 42 43 44 45 45 45
65 63 62 62 63 61 57 59 59 56 54 53 52 52 50 49 48 48 48 48 48 50 51 50 47 43 40 37 35 34 33 31 31 31 31 31 31 31 31 30 29 27 26 26 26 26 27 27 26 25 25 26 26 26 27 27 27 28 28 29 30 30 30 31 34 36 38 40 41 40 40 39 38 38 38 38 39 40 40 41 43 44 45 45 45
65 63 62 62 63 62 60 60 61 59 56 54 52 51 50 50 50 49 49 49 50 51 52 50 48 43 39 36 35 35 33 31 31 32 33 32 31 32 32 31 30 28 26 26 26 27 28 28 26 26 26 27 27 27 28 28 29 29 29 30 30 30 31 33 35 37 39 40 40 39 38 37 37 37 38 38 39 40 40 41 42 44 44 45 44
65 63 62 63 64 64 62 61 62 61 58 55 53 52 51 51 51 50 50 51 52 53 51 50 48 42 37 36 35 35 33 31 31 33 34 32 31 32 32 32 32 29 27 27 27 27 28 28 28 27 27 27 28 28 29 29 30 30 30 30 30 31 32 34 36 38 40 40 39 37 37 36 36 37 38 39 40 40 41 41 42 43 44 44 44
65 63 63 63 64 64 64 64 62 61 60 58 56 54 52 52 52 52 52 52 53 53 51 50 48 41 36 35 34 35 34 31 32 34 34 33 32 33 33 33 33 31 29 28 28 28 28 28 28 28 28 29 30 30 30 30 31 31 31 30 31 31 33 35 36 38 40 39 37 36 35 35 36 37 38 39 40 40 41 41 42 43 43 44 43
66 64 63 63 64 65 66 66 64 62 61 59 58 56 54 53 53 53 53 54 54 53 51 50 48 40 34 34 34 34 34 32 32 34 34 33 33 33 34 34 34 33 31 30 29 28 28 27 27 28 29 30 31 32 32 32 32 32 31 31 32 32 33 35 37 38 39 38 36 35 35 35 36 37 38 40 40 40 40 41 42 43 43 43 43
66 65 64 64 64 65 66 66 65 64 64 62 60 58 56 55 55 55 55 55 55 53 51 51 48 41 34 34 35 35 35 33 33 34 34 34 33 34 35 35 35 34 33 32 30 29 28 28 28 29 30 31 32 33 33 32 32 32 32 32 33 33 34 35 37 39 39 38 36 34 34 36 36 37 39 40 40 40 40 41 42 42 43 43 42
67 65 66 65 64 64 65 65 65 64 64 63 62 60 57 56 56 57 57 56 54 53 52 51 48 42 35 34 36 37 36 34 34 35 35 35 34 35 36 35 35 36 35 34 32 29 28 28 29 30 31 32 33 34 34 34 33 33 32 33 34 34 34 35 37 39 38 37 35 34 34 36 37 37 39 40 40 40 40 41 42 42 43 42 42
67 66 66 65 64 63 62 63 63 62 62 62 61 60 58 58 58 58 58 57 55 53 52 51 48 42 36 35 37 38 37 35 35 35 35 35 35 35 36 35 35 37 37 35 33 30 28 29 29 30 32 33 33 34 34 34 34 33 32 33 35 35 34 35 37 38 38 36 35 35 35 36 37 38 39 40 40 40 40 41 42 42 42 42 42
67 67 66 65 64 62 60 60 60 59 60 61 60 60 58 58 59 60 59 57 55 53 52 51 47 42 37 36 39 40 38 37 37 36 35 36 35 36 36 35 35 38 38 36 34 31 29 30 31 32 32 33 34 34 33 33 33 33 32 33 35 36 35 35 37 38 37 36 35 35 36 37 38 38 39 39 39 40 40 41 42 42 42 42 41
67 68 67 64 64 62 60 59 58 57 58 59 58 58 58 58 60 61 59 57 55 53 52 51 47 42 37 37 40 41 38 37 38 36 36 36 36 36 37 36 36 38 38 37 35 33 32 32 34 34 34 34 35 35 33 33 33 32 32 34 36 36 35 35 37 38 37 36 35 36 37 38 38 39 39 39 39 40 41 41 41 42 42 41 41
66 68 68 65 64 63 60 59 57 56 56 56 56 56 56 57 60 61 59 57 55 54 53 51 47 42 38 38 42 41 37 37 38 37 35 35 36 37 37 36 37 38 38 37 37 36 34 34 35 35 34 36 37 36 34 34 33 32 34 36 36 36 35 35 37 38 37 36 36 37 37 38 39 39 39 39 38 39 40 41 41 41 41 41 41
64 65 66 65 64 63 61 59 58 56 55 55 54 53 53 56 61 61 59 57 56 55 53 50 47 43 40 41 43 40 37 37 38 37 35 35 36 38 38 37 37 37 37 38 38 37 35 35 36 36 35 37 40 38 36 35 34 33 35 36 35 35 34 35 37 37 36 35 36 37 38 38 38 38 38 38 38 39 40 40 41 40 40 40 41
63 64 64 64 64 63 61 60 58 56 55 53 52 52 52 56 61 61 60 58 57 55 53 49 46 42 41 41 41 39 37 37 38 37 36 35 36 37 38 37 37 37 37 37 38 39 37 36 37 36 37 40 40 39 39 37 34 33 34 35 34 34 35 35 36 37 35 34 35 37 38 38 38 38 37 38 38 39 39 40 40 40 39 40 42
63 64 64 64 64 63 61 60 58 57 55 53 51 52 54 57 60 61 61 59 57 55 52 48 44 42 41 40 39 39 38 38 38 38 36 36 37 37 37 37 37 37 37 37 37 38 38 37 37 38 39 40 40 41 41 36 32 31 33 33 33 34 35 36 36 36 35 34 36 38 38 38 38 37 37 38 38 38 38 39 40 40 39 41 43
62 64 65 65 65 63 61 59 59 58 56 53 52 53 56 58 59 60 61 59 57 55 51 47 44 42 40 38 37 38 38 37 39 40 39 38 38 37 37 37 37 38 38 37 36 37 38 39 39 39 40 39 40 43 41 33 30 31 32 32 33 34 35 35 35 34 34 35 37 38 39 38 38 37 37 38 38 37 37 38 39 39 39 41 43
63 63 64 65 64 62 60 59 59 59 56 53 52 53 55 57 58 58 59 58 56 53 50 47 43 41 38 37 36 37 37 37 40 43 42 41 40 39 39 38 38 39 39 36 34 36 39 39 40 42 42 40 42 43 37 31 31 32 31 32 33 33 34 34 33 33 34 36 38 39 38 38 37 37 37 38 37 37 37 37 38 38 39 41 43
63 62 63 64 64 61 60 60 60 59 56 54 52 52 53 55 56 55 56 56 54 52 49 45 41 39 38 36 34 35 36 36 39 43 43 42 41 41 41 41 40 41 40 36 35 37 38 39 42 42 42 42 44 41 34 32 32 31 30 31 31 30 31 31 31 32 34 37 39 39 38 36 35 36 37 37 37 36 36 37 37 38 40 41 42
61 62 61 62 63 62 61 60 59 59 57 55 53 53 53 53 53 52 52 53 52 50 47 42 40 40 39 36 34 35 35 35 37 41 43 43 42 41 41 42 42 43 41 37 35 37 39 41 42 42 43 46 44 36 32 31 31 29 28 29 29 29 31 31 32 33 35 37 39 38 36 35 34 35 37 37 36 36 36 37 37 38 40 41 42
56 59 60 60 62 62 60 59 58 58 56 54 53 53 53 53 51 50 50 51 49 46 43 41 40 40 40 39 39 40 39 37 37 40 43 44 42 40 40 41 43 44 42 37 36 39 42 43 42 42 43 41 35 30 29 29 28 27 27 27 28 29 31 32 33 34 35 37 37 35 34 33 35 36 36 35 35 36 36 36 37 38 40 41 43
53 56 59 60 60 60 59 58 57 56 54 52 52 52 52 51 50 48 48 48 46 43 40 40 40 41 41 43 43 43 42 40 38 40 44 44 42 39 39 41 44 46 43 38 37 40 43 43 42 39 35 30 26 26 27 26 26 25 26 26 27 29 31 32 33 33 34 34 34 32 32 33 35 36 35 34 35 36 36 36 37 38 40 41 43
53 53 57 59 58 58 58 57 56 54 51 50 50 50 50 49 48 47 47 45 42 40 39 40 42 43 44 44 44 44 44 43 41 42 45 45 42 39 39 41 46 48 45 41 41 43 44 42 38 33 28 25 24 25 25 25 25 25 25 26 28 29 30 31 32 32 33 32 32 32 33 35 35 35 34 33 34 35 35 35 36 38 40 42 43
52 49 50 54 55 54 55 55 53 52 50 49 49 49 48 48 48 46 44 42 40 40 41 43 44 44 44 44 44 45 46 45 43 44 45 44 42 39 39 41 46 47 45 42 42 43 41 36 31 28 27 26 25 25 25 25 25 24 25 27 28 29 30 31 31 32 32 31 31 33 35 35 34 33 33 33 33 34 35 35 35 37 39 41 41
49 49 46 47 50 51 51 50 50 49 48 48 48 48 48 47 47 44 42 41 42 43 44 45 44 44 45 45 45 46 47 46 44 45 46 43 39 39 39 39 41 43 42 40 41 43 42 38 34 32 32 30 28 26 26 25 24 24 26 28 29 30 30 31 31 31 31 31 32 34 34 34 34 33 32 32 32 34 34 34 35 36 38 39 40
42 49 46 43 47 51 51 50 48 46 47 47 47 48 48 47 46 44 43 44 45 46 46 46 45 46 47 46 46 47 47 46 44 45 46 43 39 39 40 39 39 42 43 42 43 45 45 42 38 34 32 30 28 26 25 24 24 25 27 28 29 31 31 31 31 31 31 32 33 33 33 33 33 32 32 31 32 33 34 34 35 36 37 38 39
35 42 43 42 44 47 49 49 48 45 45 47 47 48 48 47 46 45 45 45 46 47 48 48 47 48 49 48 47 47 48 46 44 45 45 43 40 40 40 40 42 44 44 42 42 41 40 38 35 32 30 28 27 25 25 25 25 27 28 29 30 31 31 31 31 31 32 32 32 32 32 32 32 32 31 31 32 33 34 35 36 37 38 38 39
37 36 36 37 38 39 39 42 45 45 44 45 47 47 48 48 47 47 47 48 48 48 48 49 49 50 51 50 48 48 47 46 44 44 43 42 42 42 42 42 44 44 43 41 42 39 35 33 32 31 29 28 27 26 26 26 27 28 29 29 30 31 31 31 32 32 33 33 32 31 31 31 31 31 31 31 32 33 34 35 36 37 38 38 39
46 41 36 32 33 35 36 37 40 43 43 43 44 46 47 49 50 50 50 50 50 49 49 49 50 51 51 50 48 48 47 46 45 43 42 42 44 44 43 42 42 42 40 40 40 37 33 31 31 31 30 28 27 26 26 27 29 29 29 29 31 32 31 31 32 33 33 33 32 31 30 30 31 31 31 31 32 32 33 35 36 37 38 38 38
50 49 46 41 37 38 40 40 40 41 43 44 45 46 48 49 50 51 51 51 51 50 50 50 51 51 51 50 48 47 46 46 45 43 42 42 42 41 41 41 41 40 40 40 38 36 35 34 34 33 31 29 28 28 28 29 29 30 30 30 31 32 32 32 33 33 34 34 32 30 30 31 31 31 31 31 32 32 33 34 36 37 37 37 37
49 48 49 49 45 41 41 43 43 43 43 45 46 47 49 50 51 51 52 51 51 51 50 51 53 53 52 49 48 47 47 46 45 43 41 40 40 39 41 41 41 41 41 41 40 38 37 35 34 33 31 30 29 29 29 29 30 31 31 31 31 31 32 32 33 34 34 33 31 30 30 31 31 31 31 32 32 33 34 35 36 36 37 37 36
49 47 47 49 49 46 43 42 44 45 45 46 47 48 49 49 50 52 52 53 53 53 53 55 56 55 52 49 47 47 47 46 44 42 41 40 41 42 42 42 41 41 40 41 42 40 36 34 33 32 31 30 30 30 30 30 31 32 32 32 31 32 32 33 34 34 33 32 32 31 31 31 31 30 31 32 33 33 34 35 36 36 36 35 35
47 47 46 46 48 47 45 43 44 46 47 48 49 50 51 51 52 54 55 56 57 56 57 58 59 58 55 52 50 49 47 44 42 42 40 40 42 44 43 42 41 39 39 40 40 37 34 34 33 32 30 30 31 32 32 32 32 33 33 32 32 32 33 34 34 33 32 32 32 31 31 31 31 31 32 33 33 34 35 36 36 36 36 35 34
44 46 47 46 47 47 47 46 47 48 50 51 52 53 54 55 56 58 59 60 60 60 60 62 62 61 58 55 53 50 46 42 42 43 42 42 43 44 44 43 41 38 38 38 37 35 34 34 33 31 30 31 32 33 33 33 32 33 33 32 32 32 33 34 34 33 32 32 32 32 31 30 30 31 33 33 33 34 35 36 36 36 35 34 33
41 43 45 46 46 47 47 48 50 51 52 54 55 57 59 60 61 62 63 64 64 64 63 63 63 61 58 56 53 49 43 41 43 44 43 43 44 44 44 42 39 38 39 39 36 34 35 34 32 30 31 33 33 33 33 33 33 33 33 32 32 32 34 35 34 33 33 32 32 32 31 30 31 32 33 33 34 34 35 36 36 35 34 33 32
36 39 41 43 45 46 47 48 50 51 52 53 54 56 58 60 61 63 64 64 64 64 63 62 60 57 55 53 51 47 43 42 43 43 43 44 45 44 43 42 41 41 40 39 37 35 34 34 33 33 34 34 34 33 33 33 33 33 33 32 33 34 35 35 34 33 33 32 32 31 31 31 32 33 33 33 34 35 35 35 35 34 33 32 31
32 34 36 38 40 41 43 43 44 44 44 45 46 48 51 54 57 58 59 60 60 59 58 57 55 53 52 51 48 45 43 43 42 41 42 43 44 43 42 41 41 41 38 36 36 34 33 33 35 35 35 34 34 32 32 33 34 34 34 33 34 35 35 35 34 34 33 32 31 31 31 32 32 33 33 34 35 35 35 35 34 33 32 31 30
30 32 34 36 38 38 39 38 38 38 37 37 38 39 41 45 48 52 55 56 56 55 55 53 51 50 49 48 45 45 45 44 42 42 44 45 46 45 43 40 38 38 36 35 36 36 35 35 35 34 33 32 31 30 32 33 34 34 34 34 34 36 36 35 34 33 32 32 31 30 31 32 33 33 33 34 35 35 35 34 33 32 30 29 29
26 28 30 33 36 38 38 38 37 37 36 36 37 37 38 39 40 43 46 49 49 49 48 48 46 46 47 46 46 46 46 44 41 44 48 50 47 45 42 37 35 36 37 37 36 36 35 34 32 30 30 30 30 32 34 35 35 35 35 35 35 35 34 33 32 31 31 31 31 31 32 33 33 33 34 35 35 35 34 33 32 31 30 29 28
21 24 26 29 31 33 35 37 38 38 38 39 39 39 39 39 38 38 39 40 42 43 44 45 45 46 47 46 44 44 44 45 45 49 51 49 43 39 37 36 36 37 37 35 33 33 32 30 29 30 32 33 34 35 36 36 36 36 35 35 35 34 33 33 32 31 30 31 32 32 32 33 34 34 35 35 35 34 34 33 32 30 29 28 28
16 17 21 25 28 30 31 32 34 34 33 34 37 39 40 39 39 38 38 39 41 42 43 45 47 46 45 44 43 43 44 45 47 47 47 43 39 38 37 37 37 36 34 32 32 33 33 32 33 34 36 37 36 36 37 38 38 38 37 36 35 34 34 34 34 32 32 33 33 33 33 33 34 35 35 35 34 34 33 32 31 29 29 28 28
16 14 14 16 22 27 31 31 29 26 21 20 24 31 36 39 39 38 38 40 43 46 47 48 48 47 45 44 43 43 42 41 39 38 37 36 35 36 36 35 33 33 32 33 34 35 35 35 35 36 37 37 37 37 38 38 38 38 38 37 34 33 34 34 34 33 34 34 34 33 33 34 35 36 35 35 34 33 32 30 30 29 28 28 28
23 21 17 13 14 18 23 25 25 24 20 15 13 17 25 32 38 38 35 34 37 39 40 41 42 43 42 41 40 39 37 34 32 32 32 31 31 31 30 29 29 31 32 34 35 35 35 35 35 35 36 37 37 37 37 37 37 37 38 37 35 34 34 35 35 35 35 35 35 35 35 35 35 36 35 35 34 33 31 30 29 29 28 28 28
26 26 24 20 15 14 14 14 16 19 20 18 15 14 15 20 27 30 30 30 31 31 29 29 30 33 34 34 33 33 32 31 31 30 30 29 29 29 28 28 30 33 34 34 35 34 34 35 35 35 36 37 37 37 37 36 36 36 37 37 36 35 35 35 35 35 35 35 36 36 36 36 36 35 35 34 33 32 31 30 29 29 28 29 29
26 26 26 25 23 20 16 14 13 15 16 17 18 18 16 16 18 20 22 24 26 26 25 23 23 24 26 27 27 28 29 29 29 30 30 30 30 30 30 32 34 35 35 35 35 35 34 35 35 36 36 37 37 37 37 37 36 36 37 36 36 37 37 36 35 35 36 36 37 37 37 37 36 35 34 34 33 32 31 30 30 29 29 29 29
Wind_Direction
230 233 235 237 240 241 236 231 229 228 229 235 241 244 247 251 254 259 263 267 272 276 279 282 285 289 291 286 280 281 281 282 285 288 290 287 281 278 278 278 277 277 277 278 280 282 285 289 295 300 303 304 302 297 293 291 290 291 294 297 302 305 308 308 306 310 314 312 311 311 311 317 323 322 322 322 320 318 316 317 319 320 321 323 324
229 231 233 235 238 240 234 227 226 227 229 235 240 244 247 250 253 257 261 266 270 274 277 280 283 287 290 286 281 280 279 280 282 285 288 287 282 279 278 277 276 276 276 279 281 282 285 289 294 298 301 303 302 298 294 291 291 293 295 299 303 305 306 306 305 310 316 314 313 314 313 316 321 321 320 321 319 317 316 317 319 320 321 322 323
228 229 232 234 236 238 233 226 226 227 229 234 239 243 247 249 252 255 259 263 268 271 275 279 282 285 288 286 281 279 278 277 279 282 286 286 282 279 278 276 275 275 276 279 280 281 284 288 291 294 298 300 300 297 294 291 291 294 296 299 303 304 304 304 306 310 315 315 314 315 315 317 320 319 319 319 319 317 317 317 319 320 321 321 323
228 228 230 233 234 236 233 229 228 228 230 234 237 241 245 247 250 253 257 261 265 269 273 277 280 284 286 285 281 279 277 274 276 279 283 284 281 277 276 275 274 274 275 278 279 280 282 285 287 290 294 296 297 295 293 292 292 294 296 299 302 302 303 305 307 310 313 314 314 315 317 318 318 318 318 318 318 317 317 318 319 320 321 321 323
228 227 229 232 233 235 235 231 228 228 230 233 236 240 243 246 248 251 254 258 263 267 272 275 279 282 284 284 281 278 275 272 273 277 280 282 280 276 274 273 272 272 274 276 277 278 280 282 284 287 290 293 295 294 293 292 293 295 297 299 301 302 304 305 307 310 312 314 315 316 318 318 317 318 318 318 317 316 317 318 319 320 320 322 324
230 228 228 231 232 234 236 231 227 227 230 233 236 238 242 245 247 248 252 257 261 266 270 274 277 280 282 283 281 277 274 271 271 274 278 281 279 275 272 272 271 272 273 275 277 278 279 281 283 285 288 292 294 294 294 293 293 295 297 300 301 302 303 305 307 309 312 314 315 316 318 317 317 318 318 317 317 317 318 319 319 320 320 322 324
231 229 228 230 231 234 236 231 226 227 230 232 235 237 240 243 245 247 251 256 259 264 269 272 275 277 280 282 280 275 272 270 271 273 275 278 278 274 271 271 271 272 273 275 277 278 279 280 282 285 288 291 294 294 294 293 294 296 297 299 300 301 302 304 306 310 312 314 315 316 317 317 317 318 318 318 318 319 318 319 319 319 320 321 323
230 229 228 229 231 232 233 229 226 226 229 231 234 236 238 241 244 247 251 255 258 262 267 270 273 275 278 281 278 273 271 270 271 272 274 275 275 273 271 271 271 271 273 275 277 279 280 281 283 285 288 291 293 294 294 293 294 296 297 298 299 300 301 304 307 310 313 314 315 316 317 317 317 318 318 319 319 319 318 318 318 319 320 322 323
228 228 228 228 231 232 231 228 226 225 228 230 232 234 237 240 243 247 251 254 257 260 264 268 270 273 277 278 275 272 271 270 270 271 272 272 273 272 271 271 271 271 273 276 278 280 281 282 284 286 288 291 293 294 293 293 295 296 297 298 299 300 301 305 308 311 313 313 314 316 316 316 317 318 319 319 319 319 318 317 318 319 320 322 323
228 228 228 227 229 232 231 228 226 225 227 229 231 234 236 239 243 247 250 253 256 259 262 265 268 272 275 274 272 271 271 270 270 270 270 270 272 272 271 271 271 271 273 276 278 281 282 284 285 285 287 289 291 293 293 294 295 296 297 298 299 300 302 305 309 311 312 313 314 316 316 316 317 318 319 320 320 319 318 318 318 319 320 321 322
228 228 228 228 228 231 232 231 229 228 228 230 232 235 236 239 243 246 249 252 255 257 260 263 267 270 271 271 271 271 270 270 270 270 269 270 272 272 271 270 270 271 273 275 278 281 283 285 285 285 286 287 290 292 293 294 295 296 298 298 298 300 303 306 310 311 312 312 314 315 315 316 317 319 321 321 320 319 318 318 318 319 319 321 322
227 227 228 228 228 230 232 232 231 230 231 233 235 237 238 240 242 245 248 251 253 254 257 261 265 267 267 268 271 272 271 271 271 270 269 270 270 271 271 270 270 271 272 275 279 282 285 287 288 288 289 288 288 290 291 292 294 296 297 296 297 299 303 307 310 311 311 313 314 314 315 316 318 320 321 321 320 319 317 317 318 318 319 321 322
227 227 228 228 228 229 231 233 233 232 233 235 237 238 239 240 242 244 247 249 251 252 255 259 263 264 264 267 272 272 271 272 271 270 269 269 269 271 270 269 269 271 273 275 279 283 287 290 291 292 292 291 290 289 289 290 292 294 296 295 296 299 303 308 310 311 311 313 314 314 315 317 319 320 321 321 320 318 317 317 317 318 319 320 321
226 227 227 228 228 228 230 232 233 234 235 236 237 238 239 240 241 242 244 247 249 251 254 258 261 262 262 268 272 272 272 273 272 270 270 269 269 270 270 269 269 271 273 275 278 283 288 291 293 294 294 293 291 289 288 288 290 293 294 294 295 298 303 308 310 311 311 312 312 313 315 316 318 321 321 321 320 318 317 316 317 318 318 320 321
225 226 227 228 228 228 229 231 233 234 235 237 237 238 237 238 239 241 243 244 247 250 252 255 259 260 262 267 271 271 271 272 271 271 270 269 269 269 270 270 269 270 273 274 277 283 287 290 293 295 296 296 293 289 286 286 288 291 293 293 294 297 303 308 310 311 311 311 311 313 314 315 318 321 321 320 320 318 316 316 317 317 318 319 321
224 225 227 228 229 229 230 231 233 234 235 237 237 237 236 236 238 240 241 243 245 248 251 254 257 260 263 267 269 270 270 271 271 271 271 271 269 269 270 270 269 270 271 273 277 281 284 287 290 293 296 299 297 290 284 283 286 290 293 293 294 297 303 307 310 310 309 309 311 312 313 314 316 320 320 320 319 317 316 316 317 317 318 319 321
224 225 226 228 229 230 230 231 233 234 235 237 237 236 236 235 236 238 240 242 245 248 250 253 257 260 262 266 268 268 269 271 271 271 271 271 270 269 270 271 270 270 271 273 276 278 281 285 288 291 295 298 299 293 283 280 284 288 289 290 292 297 303 307 308 308 308 309 311 312 312 313 315 318 320 320 319 318 316 316 317 317 317 319 322
223 224 225 226 228 229 230 231 233 234 235 237 237 236 235 234 235 237 240 242 245 247 249 252 256 259 263 266 267 267 268 271 272 272 272 272 271 271 271 272 272 271 272 274 274 276 279 283 286 289 292 295 297 296 287 278 281 284 284 287 291 296 301 305 306 307 308 310 312 312 312 313 315 318 320 320 319 318 316 316 317 317 317 319 322
223 224 224 224 225 227 228 230 232 233 234 236 236 235 234 233 234 236 239 241 244 246 249 252 255 259 262 264 265 266 268 271 272 272 273 272 273 272 272 273 274 273 273 273 274 276 278 281 283 287 291 292 294 297 292 280 277 280 282 285 290 295 299 303 304 306 308 310 312 312 312 314 316 318 319 319 318 317 316 316 317 317 318 319 321
222 223 223 222 224 226 227 228 230 232 233 234 234 232 231 231 233 235 238 240 242 245 249 252 255 258 261 262 263 266 268 270 271 271 272 272 272 272 272 273 274 273 273 273 274 276 278 281 284 287 291 292 289 292 294 283 274 276 281 283 289 294 297 300 302 304 307 309 311 312 313 315 317 318 318 318 317 317 317 316 316 317 318 319 321
222 224 224 224 224 225 226 227 229 230 232 232 231 230 228 229 232 234 237 239 242 245 248 251 254 257 258 260 263 266 267 268 270 270 270 270 271 271 272 273 273 273 273 272 274 276 278 282 285 287 292 292 287 288 293 283 271 273 279 282 288 293 295 298 301 303 305 307 310 312 314 316 317 317 318 318 317 317 317 317 316 317 318 319 321
223 224 225 225 225 226 226 227 228 230 231 231 229 227 227 228 231 233 236 239 242 245 248 250 252 254 256 259 263 265 266 267 270 271 271 270 270 271 272 272 272 273 274 273 275 278 280 282 284 286 290 291 287 287 289 279 267 272 279 282 288 293 294 297 300 301 303 305 309 312 314 316 317 317 317 317 318 318 317 316 317 317 317 319 320
222 223 224 225 226 226 226 227 227 229 230 230 229 228 227 229 231 233 236 239 241 244 247 248 249 252 256 260 264 266 266 267 269 270 271 271 271 273 273 273 273 273 273 274 277 279 280 281 283 284 287 288 287 287 284 273 266 272 278 282 288 292 294 297 298 299 301 304 308 311 313 315 316 316 316 316 318 319 317 317 316 316 317 318 320
220 221 223 225 226 226 226 226 227 228 229 229 228 228 229 231 233 235 237 239 241 244 246 246 248 252 255 259 264 267 266 267 268 270 271 272 272 272 272 272 273 272 272 273 275 276 277 280 281 281 283 286 288 287 279 268 266 272 277 283 290 293 296 297 298 299 301 305 308 309 311 313 314 314 315 316 317 318 318 317 316 315 316 318 319
217 219 221 224 225 225 225 226 227 228 229 229 228 229 230 231 233 235 237 239 241 243 244 246 248 251 254 258 264 266 266 267 268 270 271 272 271 270 270 270 270 270 271 271 272 274 277 279 279 280 282 286 288 283 271 264 268 273 278 285 291 295 298 300 301 303 304 305 306 308 310 312 312 313 315 316 317 317 317 316 316 316 317 318 319
214 216 219 222 224 224 225 226 227 228 229 229 229 229 230 231 233 235 237 238 240 242 243 245 248 250 252 256 260 263 265 266 269 270 271 271 272 272 271 269 267 268 270 270 269 273 277 278 277 280 284 286 284 275 263 263 270 274 280 288 293 296 298 300 303 305 305 305 306 308 310 311 312 313 315 315 316 316 316 316 316 317 318 319 320
212 212 216 220 222 223 224 226 227 229 229 229 230 230 231 232 233 234 235 237 240 241 243 245 248 250 253 255 257 261 265 267 270 272 272 272 273 272 270 267 264 264 265 265 265 268 271 273 277 281 284 282 275 264 260 265 271 276 284 292 297 299 300 300 302 304 305 306 307 308 310 310 312 313 314 314 314 315 316 317 317 317 318 320 322
214 211 213 218 220 221 223 224 227 228 229 229 230 230 231 231 232 233 234 236 239 241 243 246 249 251 253 254 256 260 265 267 270 274 274 273 270 267 264 263 262 261 261 260 261 264 267 272 278 280 278 270 261 258 262 267 272 279 290 298 301 301 300 301 303 305 306 307 307 308 308 310 312 313 312 313 314 315 316 317 317 317 320 322 322
215 210 211 215 218 219 221 222 225 226 227 227 228 229 229 229 230 231 232 235 238 240 242 244 247 249 251 254 257 261 264 266 270 273 276 276 272 265 259 256 257 259 260 258 260 265 270 274 276 274 266 259 259 262 265 269 275 284 294 300 302 301 301 302 304 306 306 307 307 306 308 310 311 312 312 313 314 314 315 316 317 318 321 322 322
214 212 212 214 215 217 219 221 223 225 225 225 226 226 227 228 228 230 232 235 237 239 241 242 245 248 251 255 258 260 263 266 270 274 277 278 275 267 259 255 257 259 259 259 261 266 268 268 269 267 263 263 265 265 266 270 278 288 296 300 301 301 302 303 304 305 306 306 305 306 308 310 310 310 311 313 313 313 314 316 317 319 321 321 321
215 212 213 215 216 216 217 220 221 223 224 224 225 225 226 227 228 230 232 234 236 238 240 242 244 248 252 255 257 259 263 266 270 274 276 276 273 268 263 261 262 261 261 262 264 264 262 262 265 267 266 265 265 264 266 272 280 288 295 300 301 302 302 303 304 305 305 304 304 306 307 308 308 309 311 313 312 312 314 316 317 319 321 321 321
217 211 213 219 219 216 215 217 219 220 222 224 225 225 225 226 229 231 233 234 236 238 239 241 244 248 252 255 256 259 263 266 269 272 272 271 271 269 265 263 264 265 266 267 266 263 261 261 263 264 263 261 261 262 267 273 280 287 294 298 300 301 301 302 304 305 304 303 304 305 306 306 307 308 311 312 311 312 314 316 319 321 323 323 322
218 214 216 219 217 213 212 213 215 217 220 222 224 225 225 227 229 231 232 233 235 236 239 243 246 250 254 256 257 258 261 265 268 270 269 268 268 268 266 264 264 265 267 266 263 260 258 256 257 258 258 258 260 263 268 273 279 286 292 296 298 300 300 301 303 304 304 303 303 304 304 304 305 308 311 311 311 312 314 317 320 322 323 322 321
216 216 216 213 210 209 208 208 210 215 218 219 220 223 224 226 228 228 229 231 234 237 241 245 249 252 255 256 258 259 261 264 268 269 269 268 267 267 266 265 266 268 267 261 257 256 255 253 254 256 256 257 260 264 269 274 279 285 292 296 298 298 298 299 302 303 303 303 303 302 302 303 305 308 310 310 311 313 315 317 320 321 321 320 320
224 226 225 221 217 215 212 208 208 213 218 220 221 222 224 226 227 228 230 233 236 239 243 247 250 254 256 258 259 261 262 265 268 269 268 269 269 265 263 265 271 274 268 258 252 253 253 253 255 257 256 258 261 265 269 275 280 287 293 296 297 296 296 298 300 301 301 302 302 301 301 303 306 308 308 308 310 312 314 316 318 319 319 318 319
231 231 232 233 230 224 219 215 213 215 219 220 222 223 224 226 228 230 232 235 238 241 245 249 252 255 258 260 262 263 264 267 269 268 267 269 269 266 264 268 275 275 267 256 249 248 249 252 255 256 256 259 263 266 270 276 282 289 293 294 294 294 295 297 298 299 300 300 300 300 301 303 306 306 306 308 310 312 314 316 317 317 317 316 317
233 233 234 235 234 230 224 219 218 219 222 223 224 225 226 228 231 233 235 238 241 244 248 252 255 256 258 260 261 263 265 267 269 267 265 266 267 267 267 269 273 274 268 256 247 245 249 251 252 253 256 260 263 265 270 277 283 288 292 292 292 292 293 295 296 298 298 299 299 299 301 303 304 304 305 307 310 312 313 315 316 316 315 314 315
231 233 234 235 234 232 228 223 221 222 225 227 228 230 232 233 235 238 240 242 245 248 250 253 255 257 257 259 260 262 265 267 267 265 263 264 267 268 268 269 271 271 264 253 246 246 247 246 247 251 256 260 263 267 272 278 284 288 291 292 291 291 291 293 295 296 297 297 297 299 301 301 301 302 304 307 309 311 313 314 314 314 313 313 314
230 231 233 234 232 231 231 230 228 228 230 232 233 235 237 238 240 242 244 245 247 249 251 253 255 257 258 259 261 263 265 265 262 260 261 263 264 265 266 267 268 265 257 249 244 242 242 244 250 255 258 260 264 270 275 280 285 289 290 290 289 288 289 292 295 295 296 295 296 298 299 299 298 301 304 307 309 311 312 312 313 312 312 312 313
233 233 233 234 234 234 235 237 238 238 238 238 239 239 240 241 242 243 244 245 247 249 250 252 255 257 260 261 261 262 261 258 255 257 259 259 260 263 265 266 263 256 248 240 234 235 243 251 255 257 259 263 267 271 276 282 286 287 288 287 286 286 289 292 294 294 294 294 296 297 297 296 297 301 304 306 308 310 310 311 311 311 311 311 312
233 236 237 237 238 239 240 241 242 243 243 242 242 242 242 243 243 244 245 246 247 248 250 252 254 256 258 259 259 258 254 251 252 256 258 259 260 261 260 258 252 244 237 233 234 241 250 253 254 257 262 265 268 272 277 282 285 286 286 286 285 286 288 291 292 292 292 293 295 295 295 294 296 300 303 305 307 308 308 309 309 309 309 309 310
231 233 236 238 240 241 241 242 243 244 244 244 244 244 244 244 244 244 244 245 247 248 249 250 251 253 254 255 254 252 250 250 254 257 258 259 258 255 250 247 243 239 237 238 242 246 247 249 253 259 262 264 268 272 276 280 283 284 285 284 284 286 288 289 291 291 291 292 293 293 292 293 296 300 303 304 305 306 306 306 307 306 306 306 308
233 232 232 233 235 237 238 239 240 240 241 242 243 244 244 244 243 243 242 243 243 244 245 245 246 248 250 249 248 248 250 253 257 260 259 255 250 246 244 244 241 238 237 238 240 243 245 249 255 260 263 265 269 272 273 277 280 282 282 283 283 285 287 288 289 290 290 291 291 290 290 293 296 300 301 302 303 304 304 304 304 304 304 304 306
237 236 235 234 234 234 233 233 234 236 238 239 240 242 243 243 243 242 241 240 240 241 241 242 243 243 244 244 246 249 252 254 255 255 254 250 244 241 243 242 237 231 229 229 234 242 250 254 258 262 264 265 267 270 273 277 279 280 282 282 283 285 287 287 288 289 289 289 288 287 289 293 296 298 299 300 301 301 301 302 302 302 302 302 304
237 236 235 234 234 235 236 236 236 236 237 239 241 242 243 243 242 240 238 237 236 237 238 238 238 238 241 244 247 251 254 254 251 249 248 247 243 240 238 232 224 222 225 230 237 245 252 257 259 257 256 260 267 273 276 278 279 281 282 283 283 285 286 286 286 288 287 286 285 287 290 292 294 296 297 298 298 299 299 300 300 300 300 301 303
237 238 238 236 235 235 236 238 239 239 239 240 242 242 242 242 241 238 235 233 232 232 234 236 238 240 243 246 249 253 255 253 249 245 243 239 233 227 224 222 222 225 232 239 245 248 251 255 254 251 255 265 273 276 276 278 280 282 282 282 282 283 283 283 285 285 284 284 285 287 289 291 293 294 295 295 295 296 296 297 298 299 298 299 300
229 234 236 237 238 237 235 235 238 239 240 240 241 241 242 242 241 237 235 234 234 234 235 237 240 241 243 247 249 249 244 238 234 232 231 227 223 221 223 227 232 236 240 245 248 248 250 252 254 257 263 270 274 275 277 280 281 282 281 280 280 281 281 282 282 282 282 283 284 286 287 290 291 292 293 293 293 293 294 295 296 297 297 297 298
231 228 226 227 231 233 234 236 236 234 232 233 234 234 235 237 239 240 239 238 238 239 240 241 242 243 242 241 236 229 221 217 217 221 222 222 223 226 230 234 239 241 241 241 243 246 250 254 258 262 266 270 272 275 278 280 280 280 280 279 280 280 280 280 280 281 282 283 284 285 287 288 289 290 290 290 290 292 293 293 294 294 294 295 296
246 246 244 234 222 222 228 234 235 231 225 221 219 218 218 222 226 230 230 227 224 224 226 227 228 228 226 220 213 209 209 213 216 218 217 216 219 225 231 236 240 240 239 239 242 247 252 257 261 263 267 270 273 276 277 277 277 277 277 278 279 279 278 278 280 281 281 282 283 285 286 286 286 287 287 287 288 290 291 291 291 292 292 292 293
251 252 253 251 242 227 219 221 228 230 226 219 213 210 207 208 211 212 210 205 200 198 198 199 201 203 204 202 202 205 210 214 214 215 216 219 223 228 230 231 232 235 240 245 250 255 259 261 264 266 269 272 274 275 276 275 274 274 274 276 277 277 276 277 278 279 279 280 282 283 284 284 284 284 285 285 287 289 290 290 289 289 289 289 290
252 252 253 252 251 245 233 221 222 228 228 223 219 220 220 216 210 207 206 203 200 197 196 195 196 199 201 202 204 208 211 213 215 218 221 223 226 229 231 232 236 243 249 254 258 261 263 265 267 270 273 274 275 274 274 273 272 272 273 275 275 275 276 277 277 277 278 280 281 282 283 283 283 283 284 285 286 287 288 288 287 286 286 287 288
Height
5764 5767 5770 5772 5774 5776 5780 5783 5786 5788 5790 5792 5793 5795 5797 5798 5800 5801 5802 5803 5803 5804 5804 5805 5806 5807 5806 5806 5807 5807 5806 5806 5805 5805 5805 5804 5804 5803 5803 5802 5801 5801 5800 5799 5799 5798 5797 5797 5796 5795 5794 5793 5792 5791 5790 5789 5788 5787 5785 5784 5783 5782 5780 5777 5774 5773 5772 5769 5765 5764 5761 5758 5756 5752 5749 5747 5743 5739 5736 5733 5730 5727 5724 5722 5719
5759 5762 5766 5768 5770 5772 5775 5779 5781 5783 5786 5788 5789 5791 5793 5795 5796 5797 5798 5799 5800 5800 5801 5802 5802 5803 5803 5803 5804 5804 5803 5803 5803 5802 5802 5802 5801 5801 5800 5799 5799 5798 5797 5797 5796 5795 5794 5794 5794 5793 5792 5791 5790 5788 5787 5786 5785 5784 5783 5782 5781 5779 5777 5775 5771 5770 5770 5767 5762 5761 5759 5755 5753 5749 5746 5743 5740 5737 5733 5730 5727 5724 5721 5718 5717
5754 5757 5761 5764 5766 5767 5771 5774 5776 5779 5781 5784 5786 5788 5790 5792 5793 5794 5795 5796 5796 5797 5797 5798 5799 5800 5800 5800 5801 5801 5801 5800 5800 5800 5800 5799 5799 5798 5797 5797 5796 5795 5795 5794 5793 5793 5792 5791 5791 5790 5789 5788 5787 5786 5785 5784 5782 5782 5780 5779 5778 5776 5774 5772 5769 5767 5767 5764 5760 5758 5756 5752 5749 5746 5742 5739 5736 5733 5730 5727 5724 5721 5718 5714 5712
5748 5752 5756 5759 5761 5763 5767 5770 5772 5774 5777 5780 5782 5784 5786 5788 5789 5790 5791 5792 5792 5793 5794 5794 5795 5796 5797 5797 5798 5798 5798 5797 5797 5797 5797 5796 5796 5795 5795 5794 5793 5793 5792 5791 5791 5790 5789 5789 5788 5787 5786 5785 5784 5783 5782 5781 5780 5779 5778 5777 5775 5773 5771 5769 5767 5764 5763 5761 5758 5755 5753 5749 5746 5743 5739 5736 5733 5730 5727 5724 5721 5718 5715 5712 5708
5742 5746 5750 5753 5756 5759 5762 5765 5768 5770 5773 5776 5778 5780 5782 5783 5785 5787 5787 5788 5789 5789 5790 5791 5792 5793 5794 5794 5795 5795 5795 5794 5794 5794 5794 5794 5793 5793 5792 5791 5791 5790 5789 5789 5788 5788 5787 5786 5786 5785 5784 5782 5781 5781 5780 5778 5777 5776 5775 5774 5772 5770 5768 5766 5764 5762 5759 5757 5755 5752 5749 5746 5742 5739 5736 5733 5730 5727 5724 5721 5718 5715 5712 5709 5706
5737 5741 5745 5748 5751 5754 5757 5760 5763 5766 5770 5772 5774 5776 5777 5778 5781 5783 5783 5784 5785 5785 5786 5787 5788 5790 5790 5791 5791 5791 5791 5791 5791 5791 5791 5791 5790 5790 5789 5789 5788 5787 5787 5786 5785 5785 5784 5783 5783 5782 5781 5780 5779 5778 5777 5776 5774 5774 5772 5770 5769 5767 5765 5763 5761 5759 5756 5754 5752 5749 5746 5743 5739 5736 5733 5730 5727 5724 5721 5718 5716 5713 5709 5706 5703
5733 5736 5740 5743 5746 5749 5752 5756 5759 5762 5765 5767 5769 5771 5773 5774 5776 5778 5779 5780 5781 5782 5782 5783 5785 5786 5787 5787 5787 5787 5787 5788 5788 5788 5788 5788 5787 5787 5786 5786 5786 5785 5784 5783 5783 5782 5781 5781 5780 5779 5778 5777 5776 5775 5774 5773 5772 5771 5769 5767 5766 5764 5762 5760 5758 5756 5753 5751 5748 5746 5743 5740 5736 5733 5730 5726 5723 5721 5718 5715 5713 5710 5707 5704 5700
5727 5731 5734 5738 5741 5744 5748 5751 5755 5758 5760 5762 5764 5766 5768 5770 5772 5774 5775 5776 5777 5778 5779 5780 5781 5783 5783 5784 5784 5784 5784 5785 5785 5785 5785 5785 5784 5784 5783 5783 5783 5782 5781 5780 5780 5779 5779 5778 5778 5777 5776 5775 5774 5773 5772 5770 5769 5768 5766 5764 5763 5761 5759 5757 5755 5753 5750 5748 5745 5742 5739 5736 5733 5730 5727 5724 5720 5718 5715 5712 5709 5706 5703 5700 5697
5720 5724 5728 5732 5735 5739 5743 5746 5749 5752 5754 5756 5759 5761 5764 5765 5767 5769 5771 5772 5773 5774 5775 5775 5777 5779 5780 5780 5780 5780 5781 5781 5781 5781 5781 5781 5781 5781 5781 5780 5780 5780 5779 5778 5777 5776 5776 5775 5775 5774 5773 5772 5771 5770 5769 5768 5766 5765 5763 5761 5760 5758 5756 5754 5752 5750 5747 5744 5742 5739 5736 5733 5730 5727 5724 5721 5718 5715 5712 5709 5706 5703 5700 5697 5693
5713 5718 5722 5727 5730 5734 5737 5741 5743 5746 5749 5752 5754 5757 5759 5761 5762 5765 5767 5769 5769 5770 5771 5771 5773 5775 5776 5777 5777 5777 5777 5778 5778 5778 5778 5778 5778 5778 5778 5778 5777 5777 5776 5775 5774 5773 5773 5773 5772 5771 5770 5769 5768 5768 5766 5765 5764 5762 5760 5759 5757 5755 5753 5751 5749 5746 5744 5741 5739 5736 5733 5730 5727 5724 5721 5718 5715 5712 5710 5707 5704 5701 5697 5694 5691
5707 5712 5717 5721 5725 5729 5732 5735 5738 5741 5744 5747 5750 5752 5755 5756 5758 5761 5763 5764 5765 5766 5767 5768 5769 5772 5773 5773 5773 5773 5774 5775 5775 5774 5774 5775 5775 5775 5775 5774 5774 5774 5773 5772 5771 5770 5770 5770 5769 5768 5767 5766 5765 5764 5763 5762 5760 5759 5758 5756 5754 5752 5750 5748 5746 5743 5741 5738 5735 5732 5730 5727 5724 5721 5718 5715 5712 5709 5707 5704 5701 5698 5694 5691 5688
5701 5706 5711 5715 5719 5724 5727 5729 5733 5737 5740 5743 5745 5747 5750 5752 5754 5756 5758 5760 5761 5762 5763 5764 5766 5768 5769 5769 5770 5770 5770 5771 5771 5770 5771 5772 5772 5771 5771 5771 5771 5770 5769 5768 5768 5767 5767 5767 5766 5765 5764 5763 5762 5761 5760 5758 5757 5756 5754 5753 5751 5749 5747 5745 5743 5740 5737 5735 5732 5729 5727 5724 5721 5719 5715 5712 5710 5707 5704 5701 5698 5695 5692 5688 5685
5695 5699 5704 5709 5713 5718 5720 5723 5728 5732 5735 5738 5740 5742 5745 5748 5750 5752 5754 5755 5756 5757 5759 5760 5761 5764 5765 5766 5766 5766 5767 5768 5767 5767 5768 5768 5768 5768 5768 5767 5767 5767 5766 5765 5765 5764 5764 5764 5763 5762 5761 5760 5759 5758 5756 5755 5754 5752 5751 5750 5748 5746 5744 5742 5739 5737 5734 5732 5729 5726 5724 5721 5719 5716 5712 5709 5707 5704 5701 5698 5696 5692 5689 5685 5682
5689 5693 5698 5702 5707 5711 5714 5718 5723 5726 5729 5732 5734 5737 5740 5743 5746 5747 5749 5750 5751 5753 5755 5756 5757 5760 5762 5762 5762 5762 5763 5764 5764 5764 5764 5765 5765 5765 5764 5764 5764 5763 5762 5762 5761 5761 5761 5760 5759 5758 5757 5756 5755 5754 5753 5751 5750 5749 5748 5746 5745 5743 5741 5739 5737 5734 5731 5728 5726 5723 5721 5718 5716 5713 5710 5707 5704 5701 5698 5695 5693 5690 5686 5683 5679
5683 5687 5691 5696 5700 5704 5708 5713 5717 5720 5724 5726 5729 5732 5736 5739 5741 5742 5744 5746 5747 5749 5751 5752 5753 5756 5758 5758 5758 5758 5760 5760 5760 5760 5761 5761 5761 5761 5760 5761 5761 5760 5759 5758 5758 5758 5757 5757 5756 5755 5754 5753 5751 5750 5749 5748 5747 5745 5744 5743 5742 5740 5738 5736 5734 5731 5728 5726 5723 5721 5718 5715 5712 5710 5707 5704 5701 5698 5695 5693 5690 5687 5683 5680 5677
5677 5682 5686 5690 5694 5699 5703 5708 5711 5715 5718 5721 5724 5727 5731 5734 5736 5737 5739 5741 5742 5744 5746 5747 5749 5752 5754 5754 5754 5754 5756 5756 5756 5756 5757 5757 5757 5757 5756 5757 5757 5756 5755 5755 5755 5755 5754 5753 5752 5751 5750 5749 5747 5745 5744 5744 5743 5742 5741 5740 5738 5737 5735 5733 5731 5728 5725 5723 5720 5717 5715 5712 5709 5707 5704 5701 5698 5695 5692 5690 5687 5684 5680 5677 5674
5671 5676 5680 5685 5689 5693 5698 5702 5705 5709 5712 5715 5718 5722 5726 5730 5731 5732 5734 5736 5738 5740 5742 5743 5746 5748 5749 5750 5750 5750 5752 5752 5751 5752 5753 5753 5753 5753 5753 5753 5753 5752 5751 5751 5751 5751 5751 5749 5748 5748 5747 5745 5743 5741 5740 5740 5740 5739 5738 5736 5735 5733 5732 5730 5728 5725 5722 5720 5717 5714 5712 5709 5707 5704 5702 5699 5696 5692 5689 5687 5684 5681 5677 5674 5671
5665 5669 5675 5679 5683 5687 5692 5696 5700 5703 5706 5709 5713 5717 5721 5725 5726 5727 5729 5731 5733 5736 5737 5739 5741 5743 5745 5747 5746 5746 5748 5748 5747 5748 5749 5749 5749 5749 5749 5750 5749 5748 5748 5748 5747 5747 5747 5746 5745 5744 5744 5742 5739 5737 5737 5736 5736 5735 5734 5733 5731 5730 5729 5727 5724 5721 5719 5717 5714 5711 5709 5706 5704 5701 5699 5696 5693 5689 5686 5684 5681 5678 5674 5671 5668
5659 5664 5668 5672 5676 5680 5685 5690 5694 5697 5700 5703 5708 5712 5716 5719 5721 5722 5724 5726 5729 5731 5732 5735 5737 5739 5741 5742 5741 5742 5744 5744 5743 5744 5745 5746 5745 5745 5745 5745 5745 5744 5744 5744 5743 5742 5742 5742 5740 5740 5740 5738 5736 5734 5733 5732 5732 5731 5730 5729 5728 5726 5725 5723 5720 5718 5716 5713 5711 5708 5706 5703 5701 5698 5696 5693 5690 5687 5684 5681 5678 5675 5671 5668 5665
5654 5658 5660 5665 5669 5674 5679 5684 5687 5690 5694 5698 5702 5706 5711 5713 5715 5717 5719 5721 5723 5726 5728 5730 5733 5735 5737 5737 5736 5738 5740 5740 5739 5740 5741 5741 5741 5740 5740 5741 5741 5740 5740 5739 5738 5738 5738 5738 5737 5736 5736 5734 5731 5730 5730 5728 5728 5727 5726 5725 5724 5722 5721 5719 5717 5715 5712 5710 5707 5705 5702 5700 5698 5696 5693 5690 5687 5684 5681 5678 5675 5672 5668 5665 5661
5648 5651 5654 5658 5663 5668 5673 5677 5681 5685 5688 5692 5697 5701 5705 5707 5709 5711 5714 5716 5718 5721 5724 5726 5729 5731 5732 5732 5732 5734 5735 5735 5735 5735 5736 5737 5736 5736 5736 5737 5737 5736 5735 5735 5734 5734 5734 5735 5733 5732 5731 5729 5726 5725 5725 5723 5723 5723 5722 5721 5720 5718 5717 5716 5714 5711 5709 5707 5704 5702 5699 5697 5695 5693 5690 5687 5683 5681 5678 5675 5672 5669 5666 5662 5658
5643 5646 5650 5654 5658 5663 5667 5671 5675 5679 5682 5687 5691 5695 5698 5700 5703 5706 5708 5710 5713 5716 5720 5722 5725 5726 5727 5728 5729 5729 5730 5732 5731 5731 5732 5732 5732 5732 5732 5732 5732 5731 5731 5731 5731 5730 5730 5730 5729 5728 5727 5725 5723 5722 5720 5719 5719 5719 5719 5717 5716 5715 5713 5712 5710 5707 5705 5703 5701 5698 5696 5694 5692 5689 5687 5683 5681 5678 5675 5672 5669 5666 5662 5659 5656
5638 5641 5645 5649 5653 5658 5662 5666 5670 5673 5677 5681 5686 5689 5692 5694 5697 5700 5702 5705 5708 5712 5715 5718 5720 5722 5723 5724 5724 5724 5726 5727 5727 5726 5727 5728 5728 5728 5728 5728 5728 5727 5727 5727 5727 5726 5725 5725 5725 5723 5722 5722 5721 5718 5716 5715 5715 5716 5715 5714 5713 5711 5709 5708 5706 5704 5701 5700 5697 5695 5693 5691 5689 5686 5683 5680 5678 5675 5673 5670 5666 5663 5660 5656 5653
5630 5636 5639 5643 5648 5653 5657 5661 5664 5667 5672 5676 5679 5683 5686 5688 5691 5694 5697 5700 5704 5707 5710 5713 5716 5717 5718 5719 5719 5719 5721 5723 5722 5721 5722 5723 5724 5724 5723 5723 5723 5722 5722 5723 5723 5721 5721 5721 5720 5718 5718 5718 5716 5714 5713 5712 5712 5712 5712 5711 5709 5707 5705 5704 5702 5700 5698 5696 5694 5692 5690 5688 5685 5683 5680 5677 5675 5672 5670 5667 5664 5661 5657 5654 5651
5622 5629 5634 5638 5643 5648 5651 5654 5658 5662 5666 5670 5674 5677 5680 5683 5686 5690 5693 5696 5699 5703 5706 5709 5712 5713 5713 5714 5715 5714 5716 5718 5718 5717 5717 5717 5718 5718 5718 5718 5718 5717 5716 5718 5718 5717 5717 5716 5714 5713 5713 5713 5711 5710 5709 5709 5708 5709 5708 5707 5705 5704 5701 5699 5698 5697 5695 5693 5691 5689 5686 5684 5682 5680 5677 5674 5672 5669 5667 5664 5661 5657 5654 5651 5648
5616 5621 5628 5633 5637 5641 5645 5648 5653 5656 5660 5664 5668 5671 5675 5678 5681 5685 5689 5692 5695 5698 5701 5704 5706 5707 5708 5709 5710 5709 5711 5714 5714 5712 5711 5711 5712 5712 5712 5712 5712 5711 5711 5713 5713 5712 5712 5710 5708 5708 5708 5707 5705 5705 5705 5705 5705 5705 5704 5703 5701 5700 5697 5695 5694 5693 5691 5689 5687 5685 5683 5681 5679 5676 5673 5671 5668 5666 5663 5660 5657 5654 5651 5648 5645
5615 5615 5620 5626 5630 5634 5639 5644 5647 5650 5654 5659 5663 5666 5669 5673 5677 5680 5684 5687 5690 5694 5697 5699 5701 5702 5703 5704 5704 5704 5706 5709 5709 5707 5705 5706 5706 5706 5706 5706 5706 5705 5706 5707 5707 5706 5705 5704 5703 5704 5703 5701 5700 5701 5701 5702 5702 5701 5700 5699 5697 5696 5694 5692 5691 5689 5687 5685 5683 5681 5679 5677 5675 5673 5670 5667 5665 5662 5660 5657 5654 5651 5648 5645 5642
5615 5612 5613 5619 5625 5629 5634 5639 5641 5645 5649 5653 5657 5661 5665 5668 5672 5676 5679 5682 5686 5689 5693 5695 5696 5697 5697 5697 5698 5699 5700 5703 5704 5701 5699 5699 5700 5700 5700 5700 5699 5699 5700 5702 5702 5700 5698 5698 5699 5700 5698 5697 5697 5698 5698 5698 5698 5697 5696 5695 5693 5692 5690 5688 5687 5685 5683 5681 5679 5677 5675 5673 5671 5669 5667 5664 5662 5659 5657 5654 5651 5648 5645 5641 5638
5612 5609 5608 5613 5619 5624 5628 5632 5636 5640 5644 5648 5652 5656 5660 5664 5667 5670 5674 5678 5681 5685 5688 5689 5690 5690 5690 5691 5692 5694 5695 5697 5697 5695 5693 5692 5693 5694 5694 5694 5692 5692 5694 5696 5696 5694 5693 5693 5694 5695 5694 5693 5694 5694 5695 5695 5694 5693 5692 5691 5690 5688 5687 5685 5683 5681 5679 5677 5675 5673 5672 5670 5668 5666 5663 5661 5659 5656 5654 5651 5648 5645 5642 5638 5635
5607 5607 5607 5610 5614 5618 5622 5627 5630 5634 5639 5643 5646 5650 5654 5658 5661 5665 5670 5673 5677 5679 5682 5683 5684 5684 5685 5686 5687 5688 5689 5690 5690 5689 5687 5687 5687 5687 5687 5687 5686 5685 5687 5690 5690 5689 5688 5689 5690 5690 5689 5690 5690 5691 5691 5691 5690 5689 5688 5687 5686 5684 5682 5680 5679 5677 5675 5673 5671 5670 5668 5666 5664 5662 5660 5658 5655 5653 5651 5648 5645 5642 5639 5636 5633
5602 5604 5606 5609 5611 5614 5618 5622 5626 5629 5633 5637 5641 5645 5650 5653 5657 5661 5665 5669 5671 5673 5675 5677 5678 5679 5679 5680 5682 5682 5684 5685 5685 5683 5681 5681 5682 5681 5681 5681 5681 5680 5682 5684 5685 5684 5684 5685 5685 5685 5685 5686 5686 5686 5686 5686 5686 5685 5684 5683 5681 5680 5678 5676 5674 5673 5671 5670 5668 5666 5664 5662 5660 5658 5656 5654 5652 5650 5648 5645 5643 5640 5637 5634 5631
5597 5599 5603 5607 5610 5611 5613 5617 5620 5624 5628 5632 5636 5640 5644 5648 5652 5656 5660 5663 5666 5668 5669 5671 5672 5673 5673 5675 5676 5677 5678 5679 5679 5677 5675 5676 5677 5676 5675 5676 5676 5676 5677 5678 5679 5678 5679 5680 5680 5680 5681 5681 5682 5682 5682 5682 5681 5681 5680 5679 5677 5675 5673 5672 5670 5669 5667 5666 5664 5662 5660 5659 5657 5655 5653 5651 5649 5647 5644 5642 5639 5637 5634 5631 5628
5594 5596 5600 5604 5606 5607 5607 5609 5613 5618 5622 5626 5630 5635 5639 5644 5648 5652 5655 5658 5660 5661 5663 5665 5666 5667 5667 5668 5671 5672 5673 5673 5672 5671 5670 5671 5671 5671 5670 5671 5671 5671 5672 5673 5673 5673 5673 5674 5675 5675 5676 5677 5677 5677 5677 5677 5677 5676 5675 5674 5673 5671 5669 5668 5666 5665 5663 5662 5660 5659 5657 5655 5653 5651 5650 5648 5646 5644 5641 5638 5636 5633 5631 5628 5626
5590 5593 5596 5599 5600 5601 5602 5604 5608 5613 5616 5620 5624 5629 5634 5639 5643 5646 5649 5652 5654 5656 5657 5659 5660 5660 5660 5662 5665 5666 5666 5666 5666 5665 5665 5665 5666 5666 5665 5665 5664 5665 5666 5668 5668 5668 5668 5669 5670 5671 5672 5672 5673 5673 5673 5673 5673 5672 5671 5670 5668 5666 5665 5664 5662 5661 5659 5658 5657 5655 5653 5651 5650 5648 5646 5645 5643 5640 5638 5635 5633 5631 5628 5626 5623
5587 5590 5593 5595 5596 5597 5598 5601 5605 5609 5613 5616 5620 5624 5629 5634 5637 5640 5643 5646 5648 5650 5651 5652 5652 5653 5654 5656 5658 5659 5660 5660 5660 5660 5660 5660 5660 5660 5659 5659 5659 5660 5662 5663 5663 5663 5664 5665 5666 5666 5667 5668 5668 5668 5669 5668 5668 5667 5666 5665 5663 5662 5661 5660 5658 5657 5655 5654 5653 5651 5650 5648 5646 5645 5643 5642 5640 5637 5635 5633 5630 5628 5626 5623 5621
5583 5586 5589 5591 5593 5595 5596 5597 5601 5605 5609 5613 5617 5620 5624 5628 5631 5634 5637 5639 5641 5643 5644 5645 5646 5646 5648 5650 5652 5653 5654 5654 5654 5654 5655 5654 5654 5654 5654 5654 5655 5656 5656 5657 5658 5658 5658 5660 5661 5662 5663 5663 5664 5664 5664 5664 5663 5662 5662 5661 5659 5657 5656 5655 5654 5653 5651 5650 5649 5647 5646 5644 5642 5641 5640 5638 5636 5634 5632 5630 5628 5625 5623 5621 5618
5578 5581 5583 5586 5589 5591 5592 5593 5596 5601 5606 5609 5613 5616 5619 5622 5625 5628 5631 5633 5635 5637 5639 5639 5639 5639 5641 5644 5646 5647 5647 5648 5648 5648 5648 5648 5648 5649 5649 5650 5650 5650 5651 5651 5652 5652 5653 5655 5657 5657 5658 5659 5659 5659 5659 5659 5658 5658 5657 5656 5654 5653 5653 5651 5650 5649 5648 5646 5645 5643 5642 5640 5639 5638 5637 5635 5633 5631 5629 5627 5625 5622 5620 5618 5616
5573 5576 5578 5581 5584 5587 5589 5590 5592 5596 5601 5604 5608 5611 5614 5617 5620 5622 5624 5626 5628 5630 5632 5632 5631 5631 5634 5637 5639 5640 5641 5642 5642 5642 5642 5643 5643 5643 5644 5644 5644 5645 5645 5645 5645 5647 5649 5651 5652 5653 5653 5654 5654 5654 5655 5654 5653 5652 5652 5651 5650 5649 5648 5647 5646 5645 5644 5642 5640 5639 5638 5637 5636 5635 5633 5631 5629 5627 5625 5623 5621 5619 5617 5615 5613
5568 5570 5573 5576 5579 5582 5585 5586 5588 5591 5595 5599 5602 5605 5608 5611 5614 5615 5617 5619 5621 5622 5624 5624 5624 5624 5627 5630 5632 5634 5636 5637 5636 5636 5637 5638 5638 5637 5638 5638 5639 5640 5641 5641 5641 5643 5645 5646 5647 5647 5648 5648 5649 5649 5649 5649 5648 5647 5647 5646 5646 5645 5644 5643 5641 5640 5639 5638 5636 5635 5634 5633 5632 5631 5630 5628 5625 5624 5622 5620 5618 5616 5614 5612 5610
5564 5566 5568 5571 5574 5577 5579 5581 5583 5587 5590 5593 5596 5599 5601 5604 5606 5608 5609 5611 5613 5615 5616 5616 5616 5618 5621 5624 5626 5628 5630 5630 5630 5630 5631 5631 5631 5631 5631 5632 5633 5634 5635 5636 5638 5640 5641 5641 5642 5642 5643 5644 5645 5645 5644 5644 5643 5642 5642 5642 5642 5641 5640 5638 5637 5636 5635 5633 5632 5631 5630 5629 5628 5627 5626 5624 5622 5620 5618 5616 5615 5613 5611 5609 5607
5560 5562 5564 5566 5569 5571 5573 5575 5577 5580 5583 5586 5589 5592 5594 5596 5598 5600 5602 5603 5605 5607 5608 5609 5610 5612 5615 5617 5618 5620 5623 5624 5624 5624 5624 5625 5625 5625 5626 5627 5628 5628 5629 5631 5633 5635 5637 5637 5637 5638 5639 5639 5640 5640 5639 5639 5638 5638 5638 5638 5637 5636 5635 5634 5633 5632 5631 5629 5628 5627 5626 5626 5625 5623 5622 5620 5618 5616 5615 5613 5611 5609 5607 5606 5604
5557 5559 5560 5562 5564 5566 5568 5569 5571 5574 5576 5578 5581 5583 5585 5587 5589 5591 5593 5595 5597 5599 5600 5602 5604 5606 5608 5609 5611 5613 5615 5616 5617 5618 5619 5619 5618 5619 5621 5622 5622 5623 5625 5626 5628 5630 5631 5632 5632 5634 5635 5635 5635 5635 5634 5634 5633 5633 5633 5633 5632 5631 5630 5629 5628 5627 5626 5625 5624 5623 5623 5622 5621 5619 5618 5616 5614 5613 5611 5609 5607 5606 5604 5602 5601
5555 5556 5557 5559 5560 5562 5563 5565 5567 5569 5570 5572 5574 5576 5577 5579 5581 5583 5585 5587 5589 5591 5593 5595 5598 5600 5601 5602 5604 5606 5608 5609 5610 5611 5612 5612 5612 5613 5615 5616 5617 5619 5622 5623 5624 5625 5626 5627 5628 5629 5630 5630 5630 5630 5629 5629 5629 5628 5628 5628 5627 5626 5625 5625 5624 5623 5622 5621 5620 5619 5618 5618 5616 5615 5613 5612 5610 5609 5607 5606 5604 5602 5600 5599 5597
5551 5552 5554 5555 5557 5558 5559 5561 5563 5564 5566 5567 5569 5570 5571 5572 5574 5576 5577 5579 5582 5584 5586 5589 5592 5594 5594 5596 5598 5600 5601 5604 5605 5606 5606 5606 5606 5608 5609 5611 5613 5616 5618 5619 5620 5621 5622 5623 5623 5624 5624 5625 5625 5625 5624 5624 5624 5623 5623 5623 5622 5621 5620 5620 5619 5618 5617 5616 5616 5615 5614 5613 5612 5611 5609 5608 5606 5605 5603 5602 5600 5598 5597 5595 5594
5548 5548 5550 5551 5553 5554 5556 5557 5558 5560 5561 5562 5563 5564 5566 5567 5568 5569 5571 5573 5576 5578 5581 5583 5586 5588 5588 5590 5593 5594 5595 5597 5600 5600 5599 5599 5601 5604 5605 5607 5609 5611 5612 5614 5615 5616 5617 5617 5618 5619 5619 5620 5620 5620 5619 5619 5619 5618 5618 5618 5617 5616 5616 5615 5614 5614 5613 5612 5611 5611 5610 5609 5607 5606 5605 5604 5602 5601 5599 5597 5596 5594 5593 5592 5590
5545 5546 5547 5548 5549 5550 5552 5553 5554 5555 5556 5557 5558 5559 5560 5561 5562 5564 5566 5568 5570 5573 5575 5577 5579 5581 5583 5585 5587 5588 5589 5590 5591 5591 5591 5593 5596 5599 5601 5603 5604 5605 5606 5608 5610 5611 5611 5612 5613 5614 5614 5614 5614 5614 5614 5613 5613 5613 5613 5612 5612 5611 5611 5610 5609 5609 5608 5608 5607 5606 5605 5604 5603 5602 5601 5599 5598 5597 5595 5593 5592 5590 5589 5588 5587
5543 5543 5544 5544 5545 5546 5547 5548 5549 5550 5551 5551 5552 5553 5555 5556 5558 5559 5561 5563 5565 5567 5569 5571 5572 5574 5577 5579 5582 5583 5583 5583 5583 5583 5585 5588 5591 5593 5596 5598 5599 5601 5603 5605 5606 5606 5607 5607 5608 5609 5609 5609 5609 5609 5608 5608 5607 5607 5607 5606 5606 5606 5606 5605 5605 5604 5604 5603 5602 5602 5601 5600 5598 5597 5596 5595 5594 5593 5591 5589 5588 5586 5585 5584 5583
5540 5540 5541 5541 5541 5542 5543 5544 5545 5546 5547 5547 5547 5548 5549 5550 5552 5555 5556 5558 5560 5561 5563 5564 5566 5568 5571 5573 5575 5576 5576 5577 5577 5579 5581 5584 5587 5590 5592 5594 5595 5598 5600 5601 5601 5602 5603 5603 5603 5604 5604 5603 5603 5604 5603 5602 5602 5601 5600 5600 5601 5601 5600 5599 5599 5599 5599 5598 5597 5597 5596 5595 5594 5592 5591 5590 5589 5588 5587 5585 5583 5582 5581 5580 5579
5536 5537 5538 5538 5538 5539 5540 5541 5542 5543 5544 5544 5545 5545 5545 5546 5547 5550 5551 5552 5553 5555 5556 5557 5559 5562 5565 5567 5569 5570 5571 5573 5574 5576 5578 5580 5583 5586 5588 5590 5591 5593 5594 5595 5595 5597 5598 5598 5598 5598 5598 5598 5598 5598 5597 5596 5596 5595 5595 5595 5596 5596 5595 5594 5594 5594 5593 5592 5592 5591 5591 5590 5589 5588 5587 5586 5584 5583 5582 5581 5579 5578 5577 5576 5575
5533 5534 5535 5536 5536 5537 5537 5538 5539 5540 5541 5542 5543 5543 5544 5544 5545 5546 5547 5548 5549 5550 5551 5553 5555 5557 5560 5562 5564 5566 5568 5570 5572 5573 5576 5578 5580 5582 5584 5586 5587 5587 5588 5588 5590 5591 5592 5592 5592 5592 5592 5592 5592 5592 5591 5591 5591 5591 5590 5591 5591 5590 5590 5590 5589 5589 5588 5587 5587 5586 5585 5585 5584 5583 5583 5582 5580 5578 5577 5576 5575 5574 5573 5572 5571
5530 5531 5532 5533 5533 5534 5536 5536 5536 5537 5538 5540 5541 5541 5542 5543 5544 5545 5546 5547 5548 5548 5549 5551 5552 5554 5556 5558 5560 5562 5565 5567 5569 5571 5572 5574 5576 5578 5579 5580 5581 5582 5582 5583 5584 5585 5586 5586 5586 5586 5586 5586 5586 5586 5586 5586 5586 5586 5586 5586 5585 5585 5584 5584 5584 5584 5583 5582 5581 5581 5580 5580 5579 5578 5578 5577 5575 5574 5572 5571 5570 5569 5568 5567 5567